OE6JUE Weather Reports


Display with metric or nautical units.
time (UTC)temp
F
wind
direction
speed
MPH
gust
MPH
rain 1hr
in
rain 24hr
in
rain mn
in
humidity
%
barometer
mb
20260507155119 71 180 3.0 8.0 0.00 0.05 0.00 45 1011.9
20260507154619 71 180 2.0 5.0 0.00 0.05 0.00 44 1011.8
20260507154119 71 135 3.0 9.0 0.00 0.05 0.00 44 1011.8
20260507153619 72 135 2.0 5.0 0.00 0.05 0.00 42 1011.9
20260507153119 73 135 2.0 8.0 0.00 0.05 0.00 39 1011.9
20260507152619 74 135 3.0 8.0 0.00 0.05 0.00 40 1011.9
20260507152119 73 135 4.0 13.0 0.00 0.05 0.00 40 1012.0
20260507151618 71 180 3.0 11.0 0.00 0.05 0.00 44 1012.0
20260507151119 70 180 3.0 8.0 0.00 0.05 0.00 43 1011.9
20260507150618 70 45 5.0 12.0 0.00 0.05 0.00 44 1011.9
20260507150118 69 180 3.0 10.0 0.00 0.00 0.00 44 1011.9
20260507145619 70 203 5.0 14.0 0.00 0.05 0.00 44 1011.9
20260507145118 70 135 3.0 11.0 0.00 0.05 0.00 44 1012.0
20260507144618 70 135 3.0 11.0 0.00 0.05 0.00 43 1011.9
20260507144119 70 135 4.0 11.0 0.00 0.05 0.00 44 1011.9
20260507143618 71 180 2.0 8.0 0.00 0.05 0.00 43 1012.1
20260507143118 71 23 2.0 5.0 0.00 0.05 0.00 43 1012.1
20260507142619 71 23 2.0 5.0 0.00 0.05 0.00 43 1012.1
20260507142118 72 225 2.0 6.0 0.00 0.05 0.00 42 1012.0
20260507141619 72 135 1.0 4.0 0.00 0.05 0.00 41 1012.0
20260507141118 72 90 2.0 7.0 0.00 0.05 0.00 42 1012.1
20260507140618 72 135 6.0 16.0 0.00 0.05 0.00 42 1012.0
20260507140119 71 135 4.0 12.0 0.00 0.00 0.00 44 1012.1
20260507135618 71 135 4.0 12.0 0.00 0.05 0.00 44 1012.1
20260507135118 70 180 3.0 10.0 0.00 0.05 0.00 44 1012.1
20260507134618 70 90 5.0 15.0 0.00 0.05 0.00 44 1012.2
20260507134118 71 135 2.0 7.0 0.00 0.05 0.00 42 1012.2
20260507133618 72 180 3.0 10.0 0.00 0.05 0.00 42 1012.2
20260507133118 72 158 3.0 9.0 0.00 0.05 0.00 41 1012.3
20260507132618 73 158 2.0 7.0 0.00 0.05 0.00 35 1012.3
20260507132118 74 113 3.0 9.0 0.00 0.05 0.00 34 1012.5
20260507131618 74 180 3.0 9.0 0.00 0.05 0.00 33 1012.4
20260507131118 74 225 3.0 9.0 0.00 0.05 0.00 32 1012.5
20260507130618 75 180 3.0 9.0 0.00 0.05 0.00 32 1012.6
20260507130119 76 135 3.0 10.0 0.00 0.00 0.00 32 1012.6
20260507125619 76 180 3.0 9.0 0.00 0.05 0.00 32 1012.5
20260507125118 75 90 2.0 5.0 0.00 0.05 0.00 32 1012.7
20260507124619 74 90 2.0 7.0 0.00 0.05 0.00 34 1012.6
20260507124118 73 45 4.0 11.0 0.00 0.05 0.00 35 1012.7
20260507123618 71 225 2.0 4.0 0.00 0.05 0.00 40 1012.8
20260507123118 71 113 3.0 8.0 0.00 0.05 0.00 37 1012.8
20260507122618 71 90 2.0 8.0 0.00 0.05 0.00 40 1012.9
20260507122118 71 180 2.0 7.0 0.00 0.05 0.00 41 1012.9
20260507121618 71 113 2.0 7.0 0.00 0.05 0.00 41 1013.1
20260507121118 71 225 4.0 9.0 0.00 0.05 0.00 40 1013.0
20260507120618 72 225 2.0 7.0 0.00 0.05 0.00 39 1013.0
20260507120118 74 135 2.0 6.0 0.00 0.00 0.00 35 1012.9
20260507115618 74 135 2.0 6.0 0.00 0.05 0.00 35 1012.9
20260507115118 74 135 1.0 5.0 0.00 0.05 0.00 35 1013.1
20260507114619 72 180 1.0 3.0 0.00 0.05 0.00 39 1013.2
20260507114118 72 180 3.0 7.0 0.00 0.05 0.00 37 1013.2
20260507113618 74 158 3.0 8.0 0.00 0.05 0.00 34 1013.1
20260507113118 76 158 2.0 7.0 0.00 0.05 0.00 33 1013.1
20260507112618 75 90 3.0 8.0 0.00 0.05 0.00 35 1013.2
20260507112118 74 45 3.0 8.0 0.00 0.05 0.00 35 1013.1
20260507111618 76 45 3.0 8.0 0.00 0.05 0.00 33 1013.2
20260507111118 76 158 2.0 8.0 0.00 0.05 0.00 33 1013.3
20260507110618 75 90 3.0 7.0 0.00 0.05 0.00 34 1013.2
20260507110118 75 90 3.0 7.0 0.00 0.00 0.00 34 1013.2
20260507105617 74 90 2.0 7.0 0.00 0.05 0.00 35 1013.5
20260507105118 73 45 2.0 5.0 0.00 0.05 0.00 36 1013.4
20260507104618 74 90 2.0 5.0 0.00 0.05 0.00 37 1013.4
20260507104118 74 135 2.0 5.0 0.00 0.05 0.00 35 1013.5
20260507103618 74 45 1.0 3.0 0.00 0.05 0.00 35 1013.6
20260507103118 74 135 1.0 4.0 0.00 0.05 0.00 37 1013.6
20260507102618 73 180 2.0 5.0 0.00 0.05 0.00 35 1013.6
20260507102117 73 270 2.0 7.0 0.00 0.05 0.00 37 1013.8
20260507101618 73 90 1.0 2.0 0.00 0.05 0.00 39 1013.6
20260507101118 72 90 2.0 5.0 0.00 0.05 0.00 42 1013.9
20260507100618 71 90 1.0 4.0 0.00 0.05 0.00 43 1013.8
20260507100118 71 90 1.0 4.0 0.00 0.00 0.00 43 1013.8
20260507095618 72 45 2.0 5.0 0.00 0.05 0.00 41 1013.9
20260507095118 73 90 1.0 4.0 0.00 0.05 0.00 40 1013.8
20260507094618 73 135 1.0 3.0 0.00 0.05 0.00 39 1014.0
20260507094118 72 180 3.0 7.0 0.00 0.05 0.00 42 1014.0
20260507093619 71 135 2.0 5.0 0.00 0.05 0.00 44 1013.9
20260507093119 70 45 1.0 4.0 0.00 0.05 0.00 44 1014.0
20260507092619 71 135 1.0 4.0 0.00 0.05 0.00 45 1014.0
20260507092117 70 45 2.0 7.0 0.00 0.05 0.00 45 1014.0
20260507091617 70 45 2.0 5.0 0.00 0.05 0.00 46 1014.0
20260507091118 70 45 2.0 5.0 0.00 0.05 0.00 45 1013.9
20260507090618 72 90 2.0 5.0 0.00 0.05 0.00 43 1013.9
20260507090118 71 135 1.0 2.0 0.00 0.00 0.00 47 1013.8
20260507085618 70 135 1.0 4.0 0.00 0.05 0.00 46 1013.8
20260507085118 70 315 1.0 2.0 0.00 0.05 0.00 47 1013.9
20260507084618 70 180 2.0 7.0 0.00 0.05 0.00 47 1013.9
20260507084119 69 135 2.0 4.0 0.00 0.05 0.00 50 1013.8
20260507083618 67 90 2.0 6.0 0.00 0.05 0.00 51 1013.7
20260507083117 66 135 0.0 1.0 0.00 0.05 0.00 52 1013.8
20260507082618 66 360 1.0 4.0 0.00 0.05 0.00 51 1013.6
20260507082118 66 135 0.0 2.0 0.00 0.05 0.00 51 1013.6
20260507081617 66 45 1.0 3.0 0.00 0.05 0.00 51 1013.6
20260507081117 66 135 1.0 2.0 0.00 0.05 0.00 51 1013.6
20260507080617 67 45 1.0 2.0 0.00 0.05 0.00 53 1013.7
20260507080118 66 45 0.0 2.0 0.00 0.00 0.00 54 1013.7
20260507075618 65 90 1.0 2.0 0.00 0.05 0.00 53 1013.6
20260507075118 65 158 0.0 2.0 0.00 0.05 0.00 57 1013.4
20260507074618 65 158 0.0 2.0 0.00 0.05 0.00 57 1013.4
20260507074117 65 45 0.0 1.0 0.05 0.05 0.00 57 1013.5
20260507073617 64 180 1.0 2.0 0.05 0.05 0.00 58 1013.5
20260507073117 64 180 1.0 2.0 0.05 0.05 0.00 59 1013.4
20260507072617 64 90 0.0 2.0 0.05 0.05 0.00 59 1013.3
20260507072117 64 45 1.0 3.0 0.05 0.05 0.00 60 1013.3
20260507071617 64 90 1.0 3.0 0.05 0.05 0.00 61 1013.3
20260507071118 63 180 0.0 0.0 0.05 0.05 0.00 69 1013.3
20260507070617 62 225 0.0 0.0 0.05 0.05 0.00 68 1013.3
20260507070117 62 315 0.0 2.0 0.00 0.00 0.00 70 1013.1
20260507065617 61 45 0.0 1.0 0.05 0.05 0.00 70 1013.1
20260507065117 61 45 1.0 2.0 0.05 0.05 0.00 70 1012.8
20260507064617 60 270 0.0 2.0 0.05 0.05 0.00 70 1013.0
20260507064118 60 315 1.0 2.0 0.00 0.00 0.00 71 1013.0
20260507063618 60 315 0.0 2.0 0.00 0.00 0.00 72 1013.1
20260507063117 59 360 1.0 3.0 0.00 0.00 0.00 73 1013.0
20260507062617 59 270 0.0 0.0 0.00 0.00 0.00 74 1012.9
20260507062117 59 270 0.0 2.0 0.00 0.00 0.00 74 1012.9
20260507061617 58 225 0.0 2.0 0.00 0.00 0.00 75 1012.8
20260507061118 58 225 0.0 2.0 0.00 0.00 0.00 76 1012.9
20260507060617 58 315 0.0 0.0 0.00 0.00 0.00 76 1012.9
20260507060117 58 315 0.0 0.0 0.00 0.00 0.00 76 1012.7
20260507055617 57 315 1.0 2.0 0.00 0.00 0.00 76 1012.7
20260507055117 57 360 1.0 2.0 0.00 0.00 0.00 75 1012.7
20260507054617 57 225 1.0 2.0 0.00 0.00 0.00 75 1012.8
20260507054117 56 225 0.0 2.0 0.00 0.00 0.00 76 1012.6
20260507053617 56 225 0.0 0.0 0.00 0.00 0.00 76 1012.6
20260507053117 56 180 0.0 1.0 0.00 0.00 0.00 76 1012.4
20260507052617 56 180 0.0 0.0 0.00 0.00 0.00 76 1012.5
20260507052117 56 338 1.0 2.0 0.00 0.00 0.00 76 1012.5
20260507051617 56 360 1.0 3.0 0.00 0.00 0.00 76 1012.4
20260507051117 56 180 0.0 2.0 0.00 0.00 0.00 76 1012.3
20260507050617 56 225 0.0 1.0 0.00 0.00 0.00 76 1012.3
20260507050117 55 180 0.0 1.0 0.00 0.00 0.00 76 1012.3
20260507045617 55 270 1.0 2.0 0.00 0.00 0.00 76 1012.3
20260507045117 55 225 0.0 2.0 0.00 0.00 0.00 76 1012.2
20260507044617 55 315 1.0 4.0 0.00 0.00 0.00 75 1012.0
20260507044117 55 315 1.0 4.0 0.00 0.00 0.00 75 1012.0
20260507043617 55 45 0.0 0.0 0.00 0.00 0.00 74 1012.1
20260507043117 55 45 0.0 0.0 0.00 0.00 0.00 74 1012.0
20260507042617 55 45 0.0 2.0 0.00 0.00 0.00 74 1011.9
20260507042117 56 270 1.0 2.0 0.00 0.00 0.00 74 1011.9
20260507041619 56 270 1.0 3.0 0.00 0.00 0.00 74 1011.9
20260507041116 56 270 1.0 2.0 0.00 0.00 0.00 74 1011.9
20260507040618 56 270 1.0 2.0 0.00 0.00 0.00 74 1011.9
20260507040116 56 225 1.0 2.0 0.00 0.00 0.00 73 1011.6
20260507035617 56 225 1.0 2.0 0.00 0.00 0.00 73 1011.6
20260507035117 56 225 0.0 2.0 0.00 0.00 0.00 73 1011.8
20260507034617 56 225 1.0 2.0 0.00 0.00 0.00 73 1011.7
20260507034117 56 180 0.0 2.0 0.00 0.00 0.00 73 1011.8
20260507033616 56 90 0.0 2.0 0.00 0.00 0.00 73 1011.7
20260507033116 56 270 1.0 3.0 0.00 0.00 0.00 73 1011.7
20260507032616 56 315 1.0 2.0 0.00 0.00 0.00 72 1011.5
20260507032117 56 315 1.0 2.0 0.00 0.00 0.00 72 1011.5
20260507031617 57 315 0.0 2.0 0.00 0.00 0.00 72 1011.4
20260507031116 57 225 1.0 2.0 0.00 0.00 0.00 72 1011.6
20260507030617 57 225 1.0 2.0 0.00 0.00 0.00 72 1011.7
20260507030116 57 225 1.0 2.0 0.00 0.00 0.00 71 1011.4
20260507025616 57 225 0.0 2.0 0.00 0.00 0.00 71 1011.4
20260507025117 58 360 1.0 2.0 0.00 0.00 0.00 70 1011.5
20260507024617 58 315 0.0 1.0 0.00 0.00 0.00 70 1011.5
20260507024117 58 315 1.0 2.0 0.00 0.00 0.00 70 1011.5
20260507023617 58 360 1.0 2.0 0.00 0.00 0.00 70 1011.4
20260507023117 58 225 1.0 3.0 0.00 0.00 0.00 70 1011.4
20260507022616 58 225 1.0 3.0 0.00 0.00 0.00 70 1011.4
20260507022117 58 180 1.0 2.0 0.00 0.00 0.00 71 1011.4
20260507021617 58 270 0.0 1.0 0.00 0.00 0.00 71 1011.5
20260507021116 58 315 1.0 2.0 0.00 0.00 0.00 70 1011.5
20260507020617 58 360 1.0 2.0 0.00 0.00 0.00 70 1011.4
20260507020116 59 270 1.0 3.0 0.00 0.00 0.00 70 1011.5
20260507015616 59 315 1.0 2.0 0.00 0.00 0.00 70 1011.4
20260507015116 59 225 1.0 2.0 0.00 0.00 0.00 70 1011.4
20260507014616 59 135 1.0 2.0 0.00 0.00 0.00 70 1011.4
20260507014117 59 135 1.0 2.0 0.00 0.00 0.00 70 1011.5
20260507013616 59 180 1.0 3.0 0.00 0.00 0.00 70 1011.3
20260507013117 59 180 2.0 6.0 0.00 0.00 0.00 70 1011.4
20260507012617 59 180 2.0 7.0 0.00 0.00 0.00 70 1011.4
20260507012116 59 180 2.0 4.0 0.00 0.00 0.00 70 1011.5
20260507011617 59 180 1.0 4.0 0.00 0.00 0.00 70 1011.4
20260507011116 59 180 2.0 4.0 0.00 0.00 0.00 70 1011.3
20260507010617 60 180 1.0 4.0 0.00 0.00 0.00 70 1011.4
20260507010116 60 180 1.0 4.0 0.00 0.00 0.00 70 1011.4
20260507005617 60 180 2.0 4.0 0.00 0.00 0.00 70 1011.4
20260507005116 60 135 1.0 2.0 0.00 0.00 0.00 70 1011.6
20260507004616 60 135 1.0 2.0 0.00 0.00 0.00 70 1011.5
20260507004117 60 180 1.0 3.0 0.00 0.00 0.00 70 1011.3
20260507003617 60 180 1.0 3.0 0.00 0.00 0.00 70 1011.3
20260507003116 59 158 1.0 4.0 0.00 0.00 0.00 70 1011.4
20260507002617 59 180 1.0 2.0 0.00 0.00 0.00 70 1011.4
20260507002116 60 180 0.0 2.0 0.00 0.00 0.00 70 1011.5
20260507001616 60 360 1.0 2.0 0.00 0.00 0.00 70 1011.4
20260507001116 60 315 1.0 3.0 0.00 0.00 0.00 70 1011.4
20260507000616 60 315 0.0 2.0 0.00 0.00 0.00 70 1011.4
20260507000117 60 270 1.0 3.0 0.00 0.00 0.00 70 1011.4
20260506235617 60 360 1.0 3.0 0.00 0.00 0.00 69 1011.4
20260506235116 60 360 1.0 3.0 0.00 0.00 0.00 69 1011.2
20260506234616 60 315 0.0 2.0 0.00 0.00 0.00 69 1011.3
20260506234117 60 315 1.0 4.0 0.00 0.00 0.00 69 1011.2
20260506233616 60 225 0.0 2.0 0.00 0.00 0.00 69 1011.2
20260506233117 60 225 1.0 4.0 0.00 0.00 0.00 69 1011.3
20260506232616 60 270 1.0 4.0 0.00 0.00 0.00 69 1011.2
20260506232116 60 180 1.0 4.0 0.00 0.00 0.00 68 1011.3
20260506231616 60 270 1.0 2.0 0.00 0.00 0.00 68 1011.3
20260506231116 60 180 1.0 2.0 0.00 0.00 0.00 68 1011.4
20260506230616 60 135 2.0 4.0 0.00 0.00 0.00 69 1011.3
20260506230116 60 180 2.0 6.0 0.00 0.00 0.00 69 1011.4
20260506225617 60 135 1.0 3.0 0.00 0.00 0.00 69 1011.4
20260506225116 60 135 2.0 6.0 0.00 0.00 0.00 70 1011.3
20260506224617 60 135 2.0 6.0 0.00 0.00 0.00 70 1011.3
20260506224116 59 180 1.0 2.0 0.00 0.00 0.00 71 1011.2
20260506223616 59 90 0.0 1.0 0.00 0.00 0.00 71 1011.3
20260506223117 58 180 0.0 2.0 0.00 0.00 0.00 72 1011.2
20260506222616 58 180 0.0 2.0 0.00 0.00 0.00 72 1011.2
20260506222116 58 225 1.0 2.0 0.00 0.00 0.00 72 1011.2
20260506221616 58 315 1.0 2.0 0.00 0.00 0.00 72 1011.3
20260506221117 58 315 0.0 0.0 0.00 0.00 0.00 72 1011.1
20260506220616 58 225 0.0 0.0 0.00 0.00 0.00 72 1011.2
20260506220116 58 315 0.0 2.0 0.00 0.00 0.00 73 1011.2
20260506215616 58 225 1.0 2.0 0.00 0.00 0.00 73 1011.2
20260506215116 58 270 0.0 2.0 0.00 0.00 0.00 73 1011.1
20260506214616 57 270 1.0 2.0 0.00 0.00 0.00 73 1011.0
20260506214117 57 270 0.0 0.0 0.00 0.00 0.00 73 1011.1
20260506213616 57 270 0.0 0.0 0.00 0.00 0.00 73 1011.1
20260506213116 57 270 0.0 2.0 0.00 0.00 0.00 73 1011.2
20260506212616 57 225 1.0 2.0 0.00 0.00 0.00 73 1011.1
20260506212116 57 225 0.0 1.0 0.00 0.00 0.00 73 1011.0
20260506211616 57 225 0.0 2.0 0.00 0.00 0.00 72 1011.0
20260506211116 57 225 1.0 2.0 0.00 0.00 0.00 72 1010.9
20260506210616 57 225 0.0 1.0 0.00 0.00 0.00 72 1010.9
20260506210116 58 270 0.0 2.0 0.00 0.00 0.00 71 1010.9
20260506205616 58 293 0.0 2.0 0.00 0.00 0.00 71 1010.8
20260506205116 58 270 0.0 2.0 0.00 0.00 0.00 70 1010.7
20260506204616 59 315 1.0 2.0 0.00 0.00 0.00 70 1010.8
20260506204116 59 315 1.0 2.0 0.00 0.00 0.00 70 1010.8
20260506203616 60 225 1.0 2.0 0.00 0.00 0.00 70 1010.8
20260506203116 60 270 0.0 2.0 0.00 0.00 0.00 69 1010.8
20260506202616 60 180 1.0 3.0 0.00 0.00 0.00 68 1010.8
20260506202116 60 23 0.0 2.0 0.00 0.00 0.00 67 1010.8
20260506201616 61 315 0.0 2.0 0.00 0.00 0.00 67 1010.7
20260506201116 61 315 1.0 2.0 0.00 0.00 0.00 67 1010.8
20260506200616 61 315 1.0 2.0 0.00 0.00 0.00 67 1010.8
20260506200116 61 180 1.0 5.0 0.00 0.00 0.00 67 1010.7
20260506195616 61 225 1.0 4.0 0.00 0.00 0.00 67 1010.8
20260506195116 61 225 2.0 6.0 0.00 0.00 0.00 67 1010.7
20260506194616 61 180 3.0 8.0 0.00 0.00 0.00 67 1010.8
20260506194116 61 180 2.0 5.0 0.00 0.00 0.00 67 1010.8
20260506193616 61 225 1.0 3.0 0.00 0.00 0.00 67 1010.8
20260506193116 61 180 1.0 3.0 0.00 0.00 0.00 67 1010.7
20260506192616 61 158 1.0 4.0 0.00 0.00 0.00 66 1010.6
20260506192116 61 68 1.0 2.0 0.00 0.00 0.00 66 1010.6
20260506191616 62 135 0.0 2.0 0.00 0.00 0.00 65 1010.5
20260506191116 62 270 1.0 3.0 0.00 0.00 0.00 65 1010.5
20260506190615 62 225 2.0 5.0 0.00 0.00 0.00 65 1010.3
20260506190115 62 180 2.0 7.0 0.00 0.00 0.00 65 1010.4
20260506185616 62 180 2.0 7.0 0.00 0.00 0.00 65 1010.3
20260506185115 62 225 2.0 5.0 0.00 0.00 0.00 64 1010.2
20260506184616 62 180 2.0 5.0 0.00 0.00 0.00 64 1010.0
20260506184117 63 180 2.0 5.0 0.00 0.00 0.00 64 1010.0
20260506183615 63 315 2.0 6.0 0.00 0.00 0.00 64 1010.1
20260506183116 63 225 2.0 6.0 0.00 0.00 0.00 64 1009.8
20260506182616 63 135 3.0 8.0 0.00 0.00 0.00 63 1009.6
20260506182116 63 135 3.0 9.0 0.00 0.00 0.00 63 1009.6
20260506181616 63 225 2.0 8.0 0.00 0.00 0.00 63 1009.5
20260506181116 63 180 1.0 4.0 0.00 0.00 0.00 63 1009.6
20260506180616 64 225 3.0 8.0 0.00 0.00 0.00 61 1009.7
20260506180116 64 225 3.0 8.0 0.00 0.00 0.00 61 1009.7
20260506175616 64 225 3.0 8.0 0.00 0.00 0.00 61 1009.7
20260506175115 64 90 1.0 3.0 0.00 0.00 0.00 60 1009.7
20260506174616 64 135 2.0 4.0 0.00 0.00 0.00 60 1009.7
20260506174115 64 225 2.0 5.0 0.00 0.00 0.00 60 1009.7
20260506173615 64 225 3.0 9.0 0.00 0.00 0.00 60 1009.6
20260506173115 64 135 2.0 5.0 0.00 0.00 0.00 60 1009.6
20260506172615 65 135 1.0 5.0 0.00 0.00 0.00 60 1009.4
20260506172116 65 135 3.0 9.0 0.00 0.00 0.00 60 1009.5
20260506171616 65 90 4.0 14.0 0.00 0.00 0.00 60 1009.5
20260506171116 65 180 2.0 11.0 0.00 0.00 0.00 60 1009.5
20260506170616 65 180 2.0 11.0 0.00 0.00 0.00 60 1009.5
20260506170115 65 225 5.0 14.0 0.00 0.00 0.00 59 1009.6
20260506165615 66 180 5.0 16.0 0.00 0.00 0.00 58 1009.6
20260506165116 67 135 5.0 15.0 0.00 0.00 0.00 57 1009.6
20260506164616 67 248 5.0 16.0 0.00 0.00 0.00 57 1009.6
20260506164116 66 180 3.0 10.0 0.00 0.00 0.00 58 1009.6
20260506163616 66 158 6.0 15.0 0.00 0.00 0.00 57 1009.7
20260506163116 67 135 5.0 15.0 0.00 0.00 0.00 57 1009.7
20260506162615 67 45 6.0 17.0 0.00 0.00 0.00 56 1009.8
20260506162116 67 135 5.0 12.0 0.00 0.00 0.00 56 1009.8
20260506161616 66 90 3.0 11.0 0.00 0.00 0.00 58 1009.9
20260506161116 66 270 4.0 13.0 0.00 0.00 0.00 57 1009.9
20260506160615 67 180 6.0 18.0 0.00 0.00 0.00 56 1009.9
20260506160115 67 180 6.0 18.0 0.00 0.00 0.00 56 1009.9
20260506155616 67 180 4.0 13.0 0.00 0.00 0.00 55 1009.9